[ hide orbit diagram ]
For accurate long-term ephemerides, please instead use our Horizons system.This orbit viewer was implemented using two-body methods, and hence should not be used for determining accurate long-term trajectories (over several years or decades) or planetary encounter circumstances.
Orbital Elements at Epoch 2459200.5 (2020-Dec-17.0) TDB
Reference: JPL 17 (heliocentric ecliptic J2000)
Element | Value | Uncertainty (1-sigma) | Units |
e | .1498092615996718 | 5.0412e-08 | |
a | 3.04366140197248 | 2.4297e-08 | au |
q | 2.587692734783561 | 1.5019e-07 | au |
i | 10.51666168839312 | 5.8085e-06 | deg |
node | 53.73284725337933 | 2.6693e-05 | deg |
peri | 8.212275243643971 | 3.1777e-05 | deg |
M | 263.7640932025521 | 1.9543e-05 | deg |
tp | 2459718.974706294246 (2022-May-19.47470629) | 0.00010872 | TDB |
period | 1939.514059536854 5.31 | 2.3224e-05 6.358e-08 | d yr |
n | .1856135036659472 | 2.2226e-09 | deg/d |
Q | 3.4996300691614 | 2.7937e-08 | au |
|
| | Orbit Determination Parameters
Additional Information
|
[ show covariance matrix ]
Physical Parameter Table
Parameter |
Symbol |
Value |
Units |
Sigma |
Reference |
Notes |
absolute magnitude |
H |
15.17 |
|
n/a |
E2021B55 |
|
|
105907 (2000 SN200) Discovered 2000-Sep-24 by LINEAR at Socorro |
Reference: 20051019/Numbers.arc | Last Updated: 2005-10-26 |
|
[ show close-approach data ]
|